Location: Unspecified
(0.0000°N, 0.0000°E)
Time: 14:54:14
(UTC+00:00)

deb Delta 126 - Pass Details

Date: 17 February 2026
Orbit: 1501 x 1634 km, 102.6° (Epoch: 4 March)

Event Time Altitude Azimuth Distance (km) Brightness Sun altitude
Rises 02:24:19 0° 59° (ENE) 4,772 ? -55.5°
Reaches altitude 10° 02:29:36 10° 85° (E) 3,761 ? -54.3°
Maximum altitude 02:32:58 13° 108° (ESE) 3,531 ? -53.5°
Drops below altitude 10° 02:36:18 10° 131° (SE) 3,727 ? -52.7°
Sets 02:41:24 0° 157° (SSE) 4,685 ? -51.5°
